ASTRO-H (HITOMI) (41337 NORAD) Tracking and Keplerian Element Data

This shows tracking and keplerian element data for the satellite.

Feedback or suggestion? Click here.




ElementValue
Catalog41337
NameASTRO-H (HITOMI)
Epoch Orbit15483
Epoch Day348.82870007
Epoch Year2018
RAAN260.5539
Inclination31.0054
Eccentricity0.0012315
Argument of Perigee30.0469
Mean Anonmoly330.087
Mean Motion14.98531423
Decay Rate2.24E-06
L11 41337U 16012A 18348.82870007 .00000224 00000-0 11346-4 0 9991
L22 41337 31.0054 260.5539 0012315 30.0469 330.0870 14.98531423154839

Live tracking and technical data element details for ASTRO-H (HITOMI) (NORAD 41337). ASTRO-H (HITOMI) can be tracked NOW for your location showing map with azimuth and elevation plus other details from your city location.

Track the satellite on the map from your city or location and see movement details for azimuth, elevation, latitude, longitude, range, height, and movement on the map or in text.







IsCatalogInMostPopularTable: catalog: 41337, numindb: 88
Update: records affected: 1



GetName: 41337 ASTRO-H (HITOMI)

Hit Count: updated at: Sat, 15 Dec 2018 13:56:00 GMT